x

Edisto - 41 Nm Southeast Of Charleston, Sc (41004) Wave Buoy

9:50am - Mon 25th Sep 2017 All times are EDT. -4 hours from GMT.

  • Sig Wave height 9.8ft
  • Swell Direction
  • Peak Period 12s
  • Average Period 8s
  • Wind
    20mph, 25mph gusts
  • Sea Temp 81°f
  • Air Temp 77°f
  • Sea Pressure 1011.8mb
  • Edisto - 41 Nm Southeast Of Charleston, Sc
  • Edisto - 41 Nm Southeast Of Charleston, Sc

More Historic Weather Station data

Upgrade to MSW Pro to gain access to the past 30 days of data for over 8000 Wavebouys and Weather Stations around the globe.

Join

Comparision Forecast

View Surf forecast
   
Mon 09/25 9:50am 10ft 12s 8s 20 25 mph 1011.8mb 81f 77f
9:40am  -   -   -  22 25 mph 1011.7mb - 77f
9:30am  -   -   -  20 27 mph 1011.7mb 81f 77f
9:20am  -   -   -  18 22 mph 1011.8mb 81f 77f
9:10am  -   -   -  18 22 mph 1011.8mb 81f 77f
9:00am  -   -   -  18 22 mph 1011.9mb 81f 77f
8:50am 9.5ft 11s 8s 18 22 mph 1011.8mb 80f 77f
8:40am 9.5ft  -  8s 18 22 mph 1011.8mb 80f 77f
8:30am  -   -   -  18 22 mph 1011.7mb 80f 77f
8:20am  -   -   -  18 22 mph 1011.8mb 80f 77f
8:10am  -   -   -  18 22 mph 1011.7mb 80f 77f
8:00am  -   -   -  18 22 mph 1011.5mb 80f 77f
7:50am 9.5ft 12s 8s 18 22 mph 1011.4mb 80f 77f
7:40am  -   -   -  18 22 mph 1011.4mb 80f 78f
7:30am  -   -   -  18 20 mph 1011.4mb 80f 78f
7:20am  -   -   -  18 22 mph 1011.4mb 80f 78f
7:10am  -   -   -  18 22 mph 1011.2mb 80f 78f
7:00am  -   -   -  18 22 mph 1011.2mb 80f 78f
6:50am 9.5ft 14s 7s 18 22 mph 1011.2mb 80f 78f
6:40am 9.5ft  -  7s 18 22 mph 1011.2mb 80f 78f
6:30am  -   -   -  18 22 mph 1011.2mb 80f 78f
6:20am  -   -   -  18 22 mph 1011mb 80f 78f
6:10am  -   -   -  18 20 mph 1010.9mb 80f 78f
6:00am  -   -   -  18 22 mph 1010.9mb - 78f
5:50am 11ft 11s 8s 18 20 mph 1010.8mb 80f 78f
5:40am  -   -   -  18 22 mph 1010.6mb 80f 78f
5:30am  -   -   -  18 22 mph 1010.6mb 80f 78f
5:20am  -   -   -  18 22 mph 1010.5mb 80f 78f
5:10am  -   -   -  20 25 mph 1010.5mb 80f 78f
5:00am  -   -   -  20 22 mph 1010.5mb 80f 78f
4:50am 10ft 13s 7s 18 22 mph 1010.6mb 81f 78f
4:40am  -   -   -  20 25 mph 1010.5mb 81f 78f
4:30am  -   -   -  20 25 mph 1010.5mb 81f 78f
4:20am  -   -   -  20 25 mph 1010.5mb 81f 78f
4:10am  -   -   -  20 25 mph 1010.5mb 81f 78f
4:00am  -   -   -  20 25 mph 1010.6mb 81f 78f
3:50am 11ft 13s 8s 20 25 mph 1010.6mb 81f 78f
3:40am  -   -   -  20 27 mph 1010.6mb 81f 78f
3:30am  -   -   -  20 25 mph 1010.4mb - 78f
3:20am  -   -   -  20 25 mph 1010.5mb 81f 79f
3:10am  -   -   -  20 27 mph 1010.5mb 81f 79f
3:00am  -   -   -  22 27 mph 1010.4mb 81f 79f
2:50am 11ft 15s 8s 22 27 mph 1010.4mb 81f 79f
2:40am 11ft  -  8s 20 25 mph 1010.3mb 81f 79f
2:30am  -   -   -  22 27 mph 1010.4mb 81f 79f
2:20am  -   -   -  22 27 mph 1010.2mb 81f 79f
2:10am  -   -   -  22 29 mph 1010.3mb 81f -
2:00am  -   -   -  22 27 mph 1010.4mb 81f 79f
1:50am 11ft 14s 8s 20 27 mph 1010.5mb - 79f
1:40am 11ft  -  8s 20 27 mph 1010.6mb 81f 79f
1:30am  -   -   -  20 27 mph 1010.7mb 81f 79f
1:20am  -   -   -  20 25 mph 1010.7mb 81f 79f
1:10am  -   -   -  20 25 mph 1010.8mb - 79f
1:00am  -   -   -  22 27 mph 1011.6mb 81f 79f
12:50am 12.5ft 15s 9s 20 25 mph 1010.8mb - 79f
12:40am 12.5ft  -  9s 20 27 mph 1011mb 81f 79f
12:30am  -   -   -  20 25 mph 1011.2mb 81f 79f
12:20am  -   -   -  20 25 mph 1011.3mb 81f 79f
12:10am  -   -   -  20 25 mph 1011.3mb 81f 79f
12:00am  -   -   -  20 25 mph 1011.5mb 81f 79f
Sun 09/24 11:50pm 12ft 14s 8s 20 25 mph 1011.5mb 81f 80f
11:40pm 12ft  -  8s 20 25 mph 1011.7mb 81f 80f
11:30pm  -   -   -  20 25 mph 1011.8mb 81f 80f
11:20pm  -   -   -  20 25 mph 1012mb 81f 80f
11:10pm  -   -   -  20 25 mph 1012.1mb 81f 80f
11:00pm  -   -   -  20 25 mph 1012.2mb 81f 80f
10:50pm 12ft 14s 8s 20 25 mph 1012.3mb 81f 80f
10:40pm 12ft  -  8s 20 25 mph 1012.5mb 81f 80f
10:30pm  -   -   -  20 22 mph 1012.6mb 81f 80f
10:20pm  -   -   -  20 25 mph 1012.5mb 81f 80f
10:10pm  -   -   -  20 25 mph 1012.5mb 81f 80f
10:00pm  -   -   -  20 27 mph 1012.6mb 81f 80f
9:50pm 13.5ft 15s 9s 20 25 mph 1012.6mb 81f 80f
9:40pm 13.5ft  -  9s 20 25 mph 1012.6mb 81f 80f
9:30pm  -   -   -  20 25 mph 1012.7mb 81f 80f
9:20pm  -   -   -  20 27 mph 1012.7mb 81f 80f
9:10pm  -   -   -  20 25 mph 1012.7mb 81f 80f
9:00pm  -   -   -  20 25 mph 1012.7mb - 80f
8:50pm 11.5ft 14s 8s 20 25 mph 1012.8mb 81f 80f
8:40pm  -   -   -  22 29 mph 1012.7mb 81f 80f
8:30pm  -   -   -  22 27 mph 1012.7mb 81f 80f
8:20pm  -   -   -  22 27 mph 1012.7mb 81f 80f
8:10pm  -   -   -  22 27 mph 1012.8mb 81f 80f
8:00pm  -   -   -  20 27 mph 1012.7mb 81f 80f
7:50pm 12ft 15s 8s 22 27 mph 1012.7mb 81f 80f
7:40pm 12ft  -  8s 20 25 mph 1012.6mb 81f 80f
7:30pm  -   -   -  22 27 mph 1012.5mb 81f 80f
7:20pm  -   -   -  22 27 mph 1012.6mb 81f 80f
7:10pm  -   -   -  22 29 mph 1012.7mb 81f 80f
7:00pm  -   -   -  22 27 mph 1012.6mb 81f 80f
6:50pm 12ft 15s 8s 22 29 mph 1012.6mb 81f 80f
6:40pm 12ft  -  8s 22 27 mph 1012.6mb 81f 80f
6:30pm  -   -   -  22 29 mph 1012.7mb 81f 79f
6:20pm  -   -   -  22 29 mph 1012.6mb 81f 79f
6:10pm  -   -   -  25 31 mph 1012.6mb 81f 80f
6:00pm  -   -   -  25 29 mph 1012.5mb 81f 79f
5:50pm 11.5ft 15s 8s 25 31 mph 1012.6mb 81f 79f
5:40pm  -   -   -  25 31 mph 1012.5mb 81f 79f
5:30pm  -   -   -  25 31 mph 1012.5mb 81f 79f
5:20pm  -   -   -  25 31 mph 1012.4mb - 79f
5:10pm  -   -   -  25 29 mph 1012.5mb 81f 79f
5:00pm  -   -   -  25 29 mph 1012.5mb 81f 79f
4:50pm 10ft 14s 7s 25 29 mph 1012.5mb - 79f
4:40pm  -   -   -  25 31 mph 1012.4mb 81f 79f
4:30pm  -   -   -  25 31 mph 1012.3mb 81f 79f
4:20pm  -   -   -  22 29 mph 1012.3mb 81f 79f
4:10pm  -   -   -  25 31 mph 1012.3mb 81f 79f
4:00pm  -   -   -  25 29 mph 1012.3mb 81f 79f
3:50pm 10.5ft 14s 7s 22 31 mph 1012.4mb 81f 79f
3:40pm 10.5ft  -  7s 25 29 mph 1012.5mb 81f 79f
3:30pm  -   -   -  25 31 mph 1012.5mb 81f 79f
3:20pm  -   -   -  22 29 mph 1012.6mb 81f 79f
3:10pm  -   -   -  25 29 mph 1012.8mb 81f 78f
3:00pm  -   -   -  22 29 mph 1012.8mb - 78f
2:50pm 10ft  -  7s 25 29 mph 1012.8mb 81f 78f
2:40pm 10ft 15s 7s  -  mph - - -
2:30pm  -   -   -  22 27 mph 1013.3mb 81f 78f
2:20pm  -   -   -  22 27 mph 1013.4mb 81f 78f
2:10pm  -   -   -  22 27 mph 1013.5mb 81f 78f
2:00pm  -   -   -  22 27 mph 1013.6mb 81f 78f
1:50pm 10ft 13s 7s 22 27 mph 1013.5mb 81f 78f
1:40pm 10ft  -  7s 22 27 mph 1013.5mb 81f 78f
1:30pm  -   -   -  22 29 mph 1013.6mb 81f 78f
1:20pm  -   -   -  22 29 mph 1013.7mb 81f 78f
1:10pm  -   -   -  22 27 mph 1013.8mb 82f 78f
1:00pm  -   -   -  22 27 mph 1013.9mb 82f 78f
12:50pm 10ft 15s 8s 22 27 mph 1014mb 82f 78f
12:40pm 10ft  -  8s 20 27 mph 1014.1mb 82f 78f
12:30pm  -   -   -  22 27 mph 1014.2mb 82f 78f
12:20pm  -   -   -  20 27 mph 1014.2mb 82f 79f
12:10pm  -   -   -  20 27 mph 1014.2mb 82f 79f
12:00pm  -   -   -  20 27 mph 1014.2mb 82f 79f
11:50am 9.5ft 14s 7s 22 27 mph 1014.4mb 82f 79f
11:40am 9.5ft  -  7s 22 29 mph 1014.3mb 82f 79f
11:30am  -   -   -  22 27 mph 1014.3mb 82f 79f
11:20am  -   -   -  22 29 mph 1014.5mb 82f 79f
11:10am  -   -   -  22 27 mph 1014.5mb 82f 79f
11:00am  -   -   -  20 25 mph 1014.6mb 82f 79f
10:50am 9ft 15s 7s 20 27 mph 1014.6mb 82f 79f
10:40am 9ft  -  7s 20 25 mph 1014.5mb 82f 79f
10:30am  -   -   -  20 27 mph 1014.6mb 82f 79f
10:20am  -   -   -  20 25 mph 1014.6mb 82f 79f
10:10am  -   -   -  20 25 mph 1014.6mb 82f 79f
10:00am  -   -   -  20 25 mph 1014.5mb 82f 79f
9:50am 9.5ft 14s 7s 20 25 mph 1014.5mb 82f 79f
9:40am 9.5ft  -  7s 20 25 mph 1014.4mb 82f 79f
9:30am  -   -   -  20 25 mph 1014.3mb 82f 79f
9:20am  -   -   -  20 25 mph 1014.2mb 82f 79f
9:10am  -   -   -  20 27 mph 1014.2mb 82f 79f
9:00am  -   -   -  20 25 mph 1014.3mb - 79f
8:50am 9.5ft 14s 7s 20 25 mph 1014.3mb - 79f
8:40am 9.5ft  -  7s 20 25 mph 1014.3mb 82f 79f
8:30am  -   -   -  20 27 mph 1014.2mb 82f 79f
8:20am  -   -   -  20 25 mph 1014.3mb 82f 79f
8:10am  -   -   -  22 25 mph 1014.3mb 82f 79f
8:00am  -   -   -  20 25 mph 1014.2mb 82f 79f
7:50am 8.5ft 11s 7s 22 27 mph 1014.1mb 82f 79f
7:40am  -   -   -  20 27 mph 1014mb 82f 79f
7:30am  -   -   -  20 25 mph 1013.9mb 82f 79f
7:20am  -   -   -  20 25 mph 1013.9mb 82f 79f
7:10am  -   -   -  20 25 mph 1013.9mb 82f 79f
7:00am  -   -   -  20 25 mph 1014mb 82f 79f
6:50am 8ft 14s 7s 20 25 mph 1013.8mb 82f 79f
6:40am 8ft  -  7s 20 22 mph 1013.7mb 82f 80f
6:30am  -   -   -  20 25 mph 1013.6mb 82f 80f
6:20am  -   -   -  20 22 mph 1013.6mb 82f 80f
6:10am  -   -   -  20 25 mph 1013.5mb 82f 80f
6:00am  -   -   -  20 25 mph 1013.4mb 82f 80f
5:50am 9ft 12s 7s 20 25 mph 1013.3mb 82f 80f
5:40am  -   -   -  20 25 mph 1013.3mb 82f 80f
5:30am  -   -   -  20 27 mph 1013.2mb 82f 80f
5:20am  -   -   -  20 25 mph 1013.2mb 82f 80f
5:10am  -   -   -  20 22 mph 1013.2mb - 80f
5:00am  -   -   -  20 25 mph 1013.2mb 82f 80f
4:50am 9.5ft 14s 8s 18 22 mph 1013.1mb 82f 80f
4:40am 9.5ft  -  8s 18 22 mph 1013mb 82f 80f
4:30am  -   -   -  18 22 mph 1013.1mb 82f 80f
4:20am  -   -   -  18 22 mph 1013.1mb 82f 80f
4:10am  -   -   -  16 22 mph 1013.1mb 82f 80f
4:00am  -   -   -  16 20 mph 1013.1mb 82f 80f
3:50am 9ft 15s 8s 16 20 mph 1013.2mb 82f 80f
3:40am 9ft  -  8s 16 20 mph 1013.4mb 82f 80f
3:30am  -   -   -  16 22 mph 1013.3mb 82f 80f
3:20am  -   -   -  18 20 mph 1013.3mb - 80f
3:10am  -   -   -  16 20 mph 1013.3mb 82f 80f
3:00am  -   -   -  16 20 mph 1013.5mb 82f 80f
2:50am 8ft 15s 8s 16 20 mph 1013.6mb 82f 80f
2:40am 8ft  -  8s 16 20 mph 1013.7mb 82f 80f
2:30am  -   -   -  16 22 mph 1013.8mb 82f 80f
2:20am  -   -   -  16 20 mph 1013.8mb 82f 80f
2:10am  -   -   -  16 20 mph 1013.7mb 82f 80f
2:00am  -   -   -  16 20 mph 1013.7mb 82f 80f
1:50am 9ft 15s 8s 16 20 mph 1013.7mb 82f 80f
1:40am 9ft  -  8s 16 20 mph 1013.7mb 82f 80f
1:30am  -   -   -  16 20 mph 1013.8mb 82f 80f
1:20am  -   -   -  16 20 mph 1013.8mb 82f 80f
1:10am  -   -   -  16 20 mph 1014mb 82f 80f
1:00am  -   -   -  16 20 mph 1014mb 82f 80f
12:50am 9ft 14s 9s 16 20 mph 1014.1mb 82f 80f
12:40am 9ft  -  9s 16 20 mph 1014.2mb 82f 80f
12:30am  -   -   -  16 20 mph 1014.3mb 82f 80f
12:20am  -   -   -  16 20 mph 1014.2mb 82f 80f
12:10am  -   -   -  16 20 mph 1014.3mb 82f 80f
12:00am  -   -   -  16 18 mph 1014.4mb 82f 80f
Sat 09/23 11:50pm 7.5ft 14s 8s 16 18 mph 1014.4mb 82f 80f
11:40pm 7.5ft  -  8s 16 20 mph 1014.6mb 82f 80f
11:30pm  -   -   -  16 20 mph 1014.5mb 82f 80f
11:20pm  -   -   -  18 22 mph 1014.6mb 82f 80f
11:10pm  -   -   -  16 20 mph 1014.5mb 82f 80f
11:00pm  -   -   -  18 20 mph 1014.6mb 82f 80f
10:50pm 9ft 15s 8s 16 20 mph 1014.6mb 82f 80f
10:40pm  -   -   -  18 20 mph 1014.6mb 82f 81f
10:30pm  -   -   -  18 20 mph 1014.5mb 82f 81f
10:20pm  -   -   -  16 20 mph 1014.6mb 82f 80f
10:10pm  -   -   -  16 20 mph 1014.8mb 82f 80f
10:00pm  -   -   -  16 20 mph 1014.7mb - 80f
9:50pm 8ft  -  8s 16 20 mph 1014.7mb 82f -
9:40pm 8ft  -  8s 16 20 mph 1014.6mb 82f 80f
9:30pm  -   -   -  16 22 mph 1014.8mb 82f 80f
9:20pm  -   -   -  18 20 mph 1014.8mb 82f 80f
9:10pm  -   -   -  16 20 mph 1014.9mb - 80f
9:00pm  -   -   -  16 20 mph 1015mb 82f 80f
8:50pm 6.5ft  -  7s 16 20 mph 1015.7mb - 80f
8:40pm 6.5ft  -  7s 16 20 mph 1015mb 82f 80f
8:30pm  -   -   -  16 18 mph 1015.1mb 82f 80f
8:20pm  -   -   -  16 20 mph 1015mb 82f 80f
8:10pm  -   -   -  16 20 mph 1014.9mb 82f 80f
8:00pm  -   -   -  16 20 mph 1014.8mb 82f 80f
7:50pm 7ft 11s 7s 16 20 mph 1014.7mb 82f 81f
7:40pm  -   -   -  16 20 mph 1014.8mb 82f 81f
7:30pm  -   -   -  16 20 mph 1014.7mb 82f 81f
7:20pm  -   -   -  16 20 mph 1014.7mb 82f 81f
7:10pm  -   -   -  16 20 mph 1014.7mb 82f 81f
7:00pm  -   -   -  16 20 mph 1014.7mb 82f 81f
6:50pm 7ft 11s 7s 16 20 mph 1014.7mb 82f 81f
6:40pm 7ft  -  7s 16 20 mph 1014.8mb 82f 81f
6:30pm  -   -   -  16 20 mph 1014.8mb - 81f
6:20pm  -   -   -  16 20 mph 1014.7mb 82f 80f
6:10pm  -   -   -  18 20 mph 1014.7mb 82f 80f
6:00pm  -   -   -  16 20 mph 1014.8mb 82f 80f
5:50pm 6.5ft 11s 6s 16 20 mph 1014.8mb 82f 80f
5:40pm 6.5ft  -  6s 18 20 mph 1014.7mb 82f 80f
5:30pm  -   -   -  16 20 mph 1014.6mb 82f 80f
5:20pm  -   -   -  18 20 mph 1014.6mb 82f 80f
5:10pm  -   -   -  18 20 mph 1014.7mb 82f 80f
5:00pm  -   -   -  16 20 mph 1014.6mb 82f 80f
4:50pm 6.5ft 11s 7s 18 20 mph 1014.7mb 82f 80f
4:40pm 6.5ft  -  7s 18 20 mph 1014.8mb 82f 80f
4:30pm  -   -   -  18 22 mph 1014.8mb 82f 80f
4:20pm  -   -   -  18 22 mph 1014.9mb 82f 80f
4:10pm  -   -   -  18 22 mph 1015mb 82f 80f
4:00pm  -   -   -  18 22 mph 1014.8mb 82f 80f
3:50pm 6.5ft 12s 7s 18 22 mph 1014.9mb 82f 80f
3:40pm 6.5ft  -  7s 18 22 mph 1014.9mb 82f 80f
3:30pm  -   -   -  18 22 mph 1015.1mb 82f 80f
3:20pm  -   -   -  18 20 mph 1015.2mb 82f 80f
3:10pm  -   -   -  16 20 mph 1015.4mb 82f 80f
3:00pm  -   -   -  16 20 mph 1015.5mb 82f 80f
2:50pm 6.5ft 11s 7s 16 20 mph 1015.5mb 82f 80f
2:40pm 6.5ft  -  7s 16 20 mph 1015.4mb 82f 80f
2:30pm  -   -   -  16 20 mph 1015.5mb 82f 81f
2:20pm  -   -   -  16 20 mph 1015.5mb 82f 81f
2:10pm  -   -   -  16 20 mph 1015.6mb 82f 81f
2:00pm  -   -   -  16 20 mph 1015.6mb 82f 81f
1:50pm 7ft 11s 7s 16 20 mph 1015.7mb 82f 81f
1:40pm  -   -   -  18 22 mph 1015.7mb 82f 81f
1:30pm  -   -   -  18 20 mph 1015.7mb 82f 81f
1:20pm  -   -   -  16 20 mph 1015.8mb 82f 81f
1:10pm  -   -   -  18 20 mph 1015.8mb 82f 81f
1:00pm  -   -   -  18 20 mph 1015.7mb 82f 81f
12:50pm 6ft 11s 7s 18 22 mph 1015.8mb 82f 81f
12:40pm 6ft  -  7s 18 20 mph 1015.7mb 82f 81f
12:30pm  -   -   -  18 22 mph 1015.7mb 82f 81f
12:20pm  -   -   -  18 22 mph 1015.8mb 82f 81f
12:10pm  -   -   -  18 22 mph 1015.8mb 82f 81f
12:00pm  -   -   -  18 20 mph 1015.8mb 82f 81f
11:50am 7ft 12s 7s 18 22 mph 1015.8mb 82f 81f
11:40am  -   -   -  16 20 mph 1015.8mb 82f 80f
11:30am  -   -   -  16 20 mph 1015.9mb 82f 80f
11:20am  -   -   -  16 20 mph 1015.8mb 82f 80f
11:10am  -   -   -  16 18 mph 1015.9mb 82f 80f
11:00am  -   -   -  18 22 mph 1015.7mb 82f 80f
10:50am 7ft 11s 7s 16 22 mph 1015.7mb 82f 80f
10:40am 7ft  -  7s 16 20 mph 1015.8mb 82f 80f
10:30am  -   -   -  16 20 mph 1015.9mb 82f 80f
10:20am  -   -   -  16 20 mph 1015.8mb 82f 80f
10:10am  -   -   -  16 20 mph 1015.8mb 82f 80f
10:00am  -   -   -  16 20 mph 1015.8mb 82f 80f
9:50am 6ft 11s 7s 16 20 mph 1015.9mb 82f 80f
9:40am 6ft  -  7s 16 20 mph 1015.8mb 82f 80f
9:30am  -   -   -  16 20 mph 1015.6mb 82f 80f
9:20am  -   -   -  16 20 mph 1015.6mb 82f 80f
9:10am  -   -   -  16 20 mph 1015.5mb 82f 80f
9:00am  -   -   -  18 22 mph 1015.5mb - 80f
8:50am 7.5ft 11s 8s 16 20 mph 1015.5mb 82f 80f
8:40am 7.5ft  -  8s 16 22 mph 1015.4mb 82f 80f
8:30am  -   -   -  16 20 mph 1015.3mb 82f 80f
8:20am  -   -   -  16 20 mph 1015.1mb 82f 80f
8:10am  -   -   -  16 18 mph 1014.9mb 82f 80f
8:00am  -   -   -  16 20 mph 1014.9mb 82f 80f
7:50am 7ft 11s 8s 13 16 mph 1014.8mb 82f 80f
7:40am  -   -   -  13 16 mph 1014.9mb 82f 80f
7:30am  -   -   -  13 18 mph 1014.8mb 82f 80f
7:20am  -   -   -  13 16 mph 1014.7mb 82f 80f
7:10am  -   -   -  11 16 mph 1014.7mb 82f 80f
7:00am  -   -   -  11 13 mph 1014.6mb 82f 80f
6:50am 7ft 14s 9s 11 16 mph 1014.5mb 82f 80f
6:40am 7ft  -  9s 13 16 mph 1014.5mb 82f 80f
6:30am  -   -   -  13 16 mph 1014.4mb 82f 80f
6:20am  -   -   -  11 16 mph 1014.3mb 82f 80f
6:10am  -   -   -  11 16 mph 1014.3mb 82f 80f
6:00am  -   -   -  11 16 mph 1014.2mb 82f 80f
5:50am 6ft 14s 8s 11 13 mph 1014.3mb 82f 81f
5:40am 6ft  -  8s 11 16 mph 1014.2mb 82f 80f
5:30am  -   -   -  11 13 mph 1014.2mb 82f 80f
5:20am  -   -   -  9 13 mph 1014.3mb 82f 80f
5:10am  -   -   -  9 13 mph 1014mb 82f 80f
5:00am  -   -   -  11 13 mph 1014mb 82f 80f
4:50am 6.5ft 14s 8s 11 13 mph 1014mb 82f 80f
4:40am 6.5ft  -  8s 9 11 mph 1014mb 82f 80f
4:30am  -   -   -  9 13 mph 1014mb 82f 80f
4:20am  -   -   -  9 13 mph 1013.9mb 82f 80f
4:10am  -   -   -  11 13 mph 1013.9mb 82f 80f
4:00am  -   -   -  11 13 mph 1014mb 82f 80f
3:50am 7ft 14s 9s 9 13 mph 1014mb 82f 81f
3:40am 7ft  -  9s 9 11 mph 1014.1mb 82f 81f
3:30am  -   -   -  9 13 mph 1014.1mb 82f 81f
3:20am  -   -   -  11 13 mph 1014.2mb 82f 81f
3:10am  -   -   -  11 16 mph 1014.3mb 82f 81f
3:00am  -   -   -  11 16 mph 1014.3mb 82f 81f
2:50am 7.5ft 11s 9s 11 16 mph 1014.3mb 82f 81f
2:40am 7.5ft  -  9s 11 13 mph 1014.3mb 82f 81f
2:30am  -   -   -  11 13 mph 1014.4mb 82f 81f
2:20am  -   -   -  11 13 mph 1014.6mb 82f 81f
2:10am  -   -   -  11 16 mph 1014.5mb 82f 81f
2:00am  -   -   -  11 16 mph 1014.5mb 82f 81f
1:50am 5.5ft 11s 8s 11 16 mph 1014.6mb 82f 81f
1:40am 5.5ft  -  8s 13 16 mph 1014.7mb 82f 81f
1:30am  -   -   -  13 16 mph 1014.6mb 82f 81f
1:20am  -   -   -  13 18 mph 1014.8mb 82f 81f
1:10am  -   -   -  13 18 mph 1014.7mb 82f 81f
1:00am  -   -   -  13 16 mph 1014.7mb 82f 81f
12:50am 5ft 11s 8s 13 18 mph 1014.9mb 82f 81f
12:40am 5ft  -  8s 11 16 mph 1014.8mb 82f 79f
12:30am  -   -   -  16 22 mph 1014.9mb 82f 78f
12:20am  -   -   -  18 25 mph 1014.7mb 82f 79f
12:10am  -   -   -  11 18 mph 1014.8mb 82f 81f
12:00am  -   -   -  9 13 mph 1014.8mb 82f 81f
Fri 09/22 11:50pm 5ft 11s 8s 9 11 mph 1014.9mb 82f 80f
11:40pm 5ft  -  8s 9 11 mph 1014.9mb 82f 81f
11:30pm  -   -   -  9 13 mph 1014.8mb 82f -
11:20pm  -   -   -  9 13 mph 1014.9mb 82f 81f
11:10pm  -   -   -  9 11 mph 1014.9mb 82f 81f
11:00pm  -   -   -  11 13 mph 1014.9mb 82f 81f
10:50pm 5ft 12s 9s 9 13 mph 1014.9mb 82f 81f
10:40pm 5ft  -  9s 11 13 mph 1014.9mb 82f 81f
10:30pm  -   -   -  11 13 mph 1014.9mb - 81f
10:20pm  -   -   -  9 13 mph 1014.9mb - 81f
10:10pm  -   -   -  9 11 mph 1014.9mb 82f 81f
10:00pm  -   -   -  9 13 mph 1014.9mb 82f 81f
9:50pm 4.5ft 12s 8s 9 11 mph 1014.8mb 82f 81f
9:40pm  -   -   -  9 11 mph 1014.6mb 82f 81f
9:30pm  -   -   -  9 11 mph 1014.7mb 82f 81f
9:20pm  -   -   -  9 11 mph 1014.8mb 82f 81f
9:10pm  -   -   -  9 11 mph 1014.8mb - 81f
9:00pm  -   -   -  9 11 mph 1014.7mb 82f 80f
8:50pm 4.5ft 12s 8s 9 11 mph 1014.6mb 82f 81f
8:40pm 4.5ft  -  8s 9 11 mph 1014.5mb 82f 81f
8:30pm  -   -   -  9 11 mph 1014.6mb 82f 81f
8:20pm  -   -   -  9 11 mph 1014.5mb 82f -
8:10pm  -   -   -  9 11 mph 1014.4mb 82f 80f
8:00pm  -   -   -  9 11 mph 1014.4mb 82f 80f
7:50pm 4.5ft 13s 8s 9 11 mph 1014.5mb 82f 80f
7:40pm  -   -   -  7 9 mph 1014.4mb 82f 80f
7:20pm  -   -   -  7 9 mph 1014.5mb 82f 80f
7:10pm  -   -   -  7 9 mph 1014.5mb 82f 80f
7:00pm  -   -   -  9 11 mph 1014.5mb 82f 80f
6:50pm 4ft 13s 8s 9 11 mph 1014.6mb 82f 80f
6:40pm 4ft  -  8s 9 11 mph 1014.7mb 82f 80f
6:30pm  -   -   -  9 11 mph 1014.8mb 82f 80f
6:20pm  -   -   -  9 11 mph 1014.7mb 82f 80f
6:10pm  -   -   -  9 11 mph 1014.5mb 82f 80f
6:00pm  -   -   -  11 11 mph 1014.5mb 82f 80f
5:50pm 3.5ft 12s 6s 11 13 mph 1014.6mb 82f 80f
5:40pm 3.5ft  -  6s 11 13 mph 1014.7mb 82f 80f
5:30pm  -   -   -  9 13 mph 1014.7mb 82f 80f
5:20pm  -   -   -  11 13 mph 1014.7mb 82f 80f
5:10pm  -   -   -  11 13 mph 1014.8mb 82f 80f
5:00pm  -   -   -  11 13 mph 1014.8mb 82f 80f
4:50pm 3.5ft 11s 6s 11 13 mph 1014.8mb 82f 80f
4:40pm 3.5ft  -  6s 11 13 mph 1014.9mb 82f 80f
4:30pm  -   -   -  11 13 mph 1014.9mb 82f 80f
4:20pm  -   -   -  11 13 mph 1014.8mb 82f 80f
4:10pm  -   -   -  11 13 mph 1015mb 82f 80f
4:00pm  -   -   -  11 18 mph 1014.8mb 82f 79f
3:50pm 3.5ft 11s 6s 11 13 mph 1014.9mb 82f 80f
3:40pm  -   -   -  11 16 mph 1015.1mb 82f 80f
3:30pm  -   -   -  11 13 mph 1015.4mb 82f 80f
3:20pm  -   -   -  13 16 mph 1015.3mb 82f 80f
3:10pm  -   -   -  11 16 mph 1015.4mb 82f 80f
3:00pm  -   -   -  11 13 mph 1015.5mb 82f 80f
2:50pm 3.5ft 11s 6s 11 16 mph 1015.6mb 82f 80f
2:40pm 3.5ft  -  6s 11 13 mph 1015.7mb 82f 80f
2:30pm  -   -   -  11 16 mph 1015.8mb 82f 79f
2:20pm  -   -   -  11 16 mph 1015.9mb 82f 79f
2:10pm  -   -   -  11 16 mph 1016mb 82f 79f
2:00pm  -   -   -  11 13 mph 1016.1mb 82f 79f
1:50pm 3.5ft 11s 7s 11 13 mph 1016.1mb 82f 79f
1:40pm 3.5ft  -  7s 11 13 mph 1016.2mb 82f 79f
1:30pm  -   -   -  11 13 mph 1016.2mb 82f 79f
1:20pm  -   -   -  11 13 mph 1016.2mb 82f 79f
1:10pm  -   -   -  11 13 mph 1016.3mb 82f 79f
1:00pm  -   -   -  11 16 mph 1016.3mb 82f 80f
12:50pm 3.5ft 10s 6s 11 13 mph 1016.4mb 82f 80f
12:40pm 3.5ft  -  6s 11 16 mph 1016.5mb 82f 79f
12:30pm  -   -   -  11 13 mph 1016.6mb - 79f
12:20pm  -   -   -  11 13 mph 1016.7mb 82f 80f
12:10pm  -   -   -  11 16 mph 1016.7mb 82f 80f
12:00pm  -   -   -  11 13 mph 1016.7mb 82f 79f
11:50am 3.5ft  -  6s 11 16 mph 1016.9mb 82f 80f
11:40am 3.5ft 11s 6s  -  mph - - -
11:30am  -   -   -  11 16 mph 1017.1mb 81f 80f
11:20am  -   -   -  11 16 mph 1017mb 81f 80f
11:10am  -   -   -  11 16 mph 1017.2mb 81f 80f
11:00am  -   -   -  13 16 mph 1017.2mb 81f 80f
10:50am 3.5ft 10s 6s 13 16 mph 1017.2mb 81f 80f
10:40am  -   -   -  13 16 mph 1017mb 81f 80f
10:30am  -   -   -  11 13 mph 1016.9mb 81f 80f
10:20am  -   -   -  11 13 mph 1016.9mb 81f 80f
10:10am  -   -   -  11 13 mph 1016.8mb 81f 80f
10:00am  -   -   -  11 13 mph 1016.7mb 81f 80f
9:50am 3.5ft 10s 6s 11 13 mph 1016.6mb 81f 80f
9:40am 3.5ft  -  6s 11 13 mph 1016.5mb 81f 80f
9:30am  -   -   -  11 13 mph 1016.4mb 82f 80f
9:20am  -   -   -  11 13 mph 1016.5mb 82f 80f
9:10am  -   -   -  11 13 mph 1016.6mb 82f 80f
9:00am  -   -   -  11 13 mph 1016.6mb 82f 80f
8:50am 3.5ft 10s 7s 11 13 mph 1016.5mb 82f 80f
8:40am 3.5ft  -  7s 11 13 mph 1016.6mb 82f 80f
8:30am  -   -   -  11 13 mph 1016.6mb 82f 80f
8:20am  -   -   -  11 13 mph 1016.5mb 82f 80f
8:10am  -   -   -  11 13 mph 1016.5mb 82f 79f
8:00am  -   -   -  11 13 mph 1016.5mb 82f 79f
7:50am 3.5ft 10s 7s 9 11 mph 1016.5mb 82f 79f
7:40am  -   -   -  9 11 mph 1016.5mb 82f 79f
7:30am  -   -   -  9 11 mph 1016.5mb 82f 79f
7:20am  -   -   -  9 11 mph 1016.4mb 82f 79f
7:10am  -   -   -  9 11 mph 1016.3mb 82f 79f
7:00am  -   -   -  9 11 mph 1016.2mb 82f 80f
6:50am 3.5ft 10s 7s 9 11 mph 1016.2mb 82f 80f
6:40am 3.5ft  -  7s 9 11 mph 1016.1mb 82f 80f
6:30am  -   -   -  9 11 mph 1016mb 82f 80f
6:20am  -   -   -  7 11 mph 1015.8mb 82f 80f
6:10am  -   -   -  4 7 mph 1015.9mb 82f 80f
6:00am  -   -   -  4 7 mph 1015.7mb 82f 80f
5:50am 3.5ft 10s 7s 7 7 mph 1015.6mb 82f 80f
5:40am  -   -   -  7 9 mph 1015.4mb 82f 80f
5:30am  -   -   -  4 7 mph 1015.4mb 81f 80f
5:20am  -   -   -  4 7 mph 1015.4mb 81f 80f
5:10am  -   -   -  4 7 mph 1015.4mb 81f 80f
5:00am  -   -   -  4 7 mph 1015.3mb 81f 80f
4:50am 3.5ft 10s 7s 4 7 mph 1015.2mb 81f 80f
4:40am 3.5ft  -  7s 4 4 mph 1015.1mb 81f 80f
4:30am  -   -   -  4 7 mph 1015.1mb 81f 80f
4:20am  -   -   -  4 7 mph 1015.1mb 81f 80f
4:10am  -   -   -  4 7 mph 1015mb 81f 80f
4:00am  -   -   -  2 4 mph 1014.9mb 81f 80f
3:50am 3.5ft 11s 8s 2 4 mph 1014.9mb 81f 80f
3:40am 3.5ft  -  8s 2 4 mph 1015.1mb 81f 80f
3:30am  -   -   -  2 4 mph 1015.1mb 81f 80f
3:20am  -   -   -   -  2 mph 1015mb 81f 80f
3:10am  -   -   -   -  2 mph 1014.9mb 82f 80f
3:00am  -   -   -   -  2 mph 1014.9mb 82f 80f
2:50am 3ft 10s 9s  -  2 mph 1015mb 82f 80f
2:40am 3ft  -  9s  -  0 mph 1015.1mb 82f 80f
2:30am  -   -   -   -  0 mph 1015.3mb 82f 80f
2:20am  -   -   -  2 2 mph 1015.4mb 82f 80f
2:10am  -   -   -  2 2 mph 1015.6mb 82f 80f
2:00am  -   -   -  2 4 mph 1015.7mb 82f 80f
1:50am 2.5ft 10s 9s 4 4 mph 1015.7mb 82f 80f
1:40am  -   -   -   -  2 mph 1015.7mb 82f 80f
1:30am  -   -   -  2 4 mph 1015.8mb 82f 80f
1:20am  -   -   -  2 4 mph 1015.9mb 82f 80f
1:10am  -   -   -  2 4 mph 1015.9mb 82f 80f
1:00am  -   -   -  4 4 mph 1015.8mb - 80f
12:50am 2.5ft 11s 9s 2 4 mph 1015.8mb 82f 80f
12:40am  -   -   -  4 7 mph 1015.8mb 82f 80f
12:30am  -   -   -  4 7 mph 1015.8mb 82f 80f
12:20am  -   -   -  2 4 mph 1016mb 82f 80f
12:10am  -   -   -  4 7 mph 1016.1mb 82f 80f
12:00am  -   -   -  4 7 mph 1016.1mb 82f 80f
Thu 09/21 11:50pm 2.5ft 11s 8s 4 7 mph 1016.1mb 82f 80f
11:40pm  -   -   -  7 9 mph 1016.1mb 82f 80f
11:30pm  -   -   -  7 7 mph 1015.9mb 82f 80f
11:20pm  -   -   -  7 7 mph 1016.1mb 82f 80f
11:10pm  -   -   -  4 9 mph 1016.1mb 82f 80f
11:00pm  -   -   -  4 7 mph 1016.1mb 82f 80f
10:50pm 2.5ft 11s 8s 4 4 mph 1016.3mb 82f 80f
10:40pm 2.5ft  -  8s 4 4 mph 1016.2mb 82f 80f
10:30pm  -   -   -  2 4 mph 1016.2mb 83f 81f
10:20pm  -   -   -  4 7 mph 1016.3mb 83f 81f
10:10pm  -   -   -  4 7 mph 1016.3mb 83f 81f
10:00pm  -   -   -   -  4 mph 1016.3mb 83f 81f
9:50pm 2.5ft 11s 9s  -  2 mph 1016.2mb 83f 81f
9:40pm  -   -   -   -  2 mph 1016mb 83f 81f
9:30pm  -   -   -   -  0 mph 1015.9mb 82f 81f
9:20pm  -   -   -   -  0 mph 1016.2mb 82f 81f
9:10pm  -   -   -   -  0 mph 1016.1mb 83f 81f
9:00pm  -   -   -   -  2 mph 1016.1mb - 81f
8:50pm 2ft 11s 8s  -  2 mph 1016mb 83f 81f
8:40pm  -   -   -   -  2 mph 1015.9mb 83f 81f
8:30pm  -   -   -   -  0 mph 1015.7mb 83f 81f
8:20pm  -   -   -   -  2 mph 1015.5mb 83f 81f
8:10pm  -   -   -  4 7 mph 1015.3mb 82f -
8:00pm  -   -   -  4 4 mph 1015.1mb 82f 81f
7:50pm 2.5ft 11s 8s 4 4 mph 1014.9mb 82f 81f
7:40pm 2.5ft  -  8s 2 4 mph 1014.8mb 82f 81f
7:30pm  -   -   -  4 7 mph 1014.6mb 82f 81f
7:20pm  -   -   -  7 7 mph 1014.5mb 83f 81f
7:10pm  -   -   -  4 7 mph 1014.3mb 82f 81f
7:00pm  -   -   -  4 7 mph 1014.3mb 82f 81f
6:50pm 2.5ft 11s 8s 2 4 mph 1014.4mb 83f 82f
6:40pm  -   -   -  2 4 mph 1014.3mb 83f 82f
6:30pm  -   -   -  4 7 mph 1014.6mb 83f 81f
6:20pm  -   -   -  4 7 mph 1014.5mb - 82f
6:10pm  -   -   -  4 7 mph 1014.5mb 82f 82f
6:00pm  -   -   -  4 7 mph 1014.5mb 82f 82f
5:50pm 2.5ft 11s 7s 7 9 mph 1014.5mb 82f 82f
5:40pm 2.5ft  -  7s 4 7 mph 1014.4mb 82f 81f
5:30pm  -   -   -  4 7 mph 1014.4mb 81f 81f
5:20pm  -   -   -  4 7 mph 1014.4mb 82f 81f
5:10pm  -   -   -  4 7 mph 1014.5mb 82f 81f
5:00pm  -   -   -  4 7 mph 1014.5mb 81f 81f
4:50pm 2.5ft 11s 8s 4 7 mph 1014.5mb 81f 81f
4:40pm 2.5ft  -  8s 4 7 mph 1014.6mb 82f 81f
4:30pm  -   -   -  4 7 mph 1014.7mb 81f 81f
4:20pm  -   -   -  4 7 mph 1014.8mb 81f 81f
4:10pm  -   -   -  4 7 mph 1015mb 81f 81f
4:00pm  -   -   -  4 7 mph 1015.1mb 81f 81f
3:50pm 2.5ft 11s 7s 4 7 mph 1015.3mb 81f 81f
3:40pm 2.5ft  -  7s 2 4 mph 1015.4mb 81f 81f
3:30pm  -   -   -  2 4 mph 1015.5mb 81f 81f
3:20pm  -   -   -  2 4 mph 1015.7mb 81f 81f
3:10pm  -   -   -   -  4 mph 1015.7mb 81f 81f
3:00pm  -   -   -  2 4 mph 1015.9mb 81f 81f
2:50pm 2.5ft 11s 7s  -  4 mph 1015.9mb 81f 81f